Location: Shannon
(40.5500°S, 175.4167°E)
Time: 08:28:03
(UTC+00:00)

SL-16 R/B - Pass Details

Date: 17 November 2025
Orbit: 840 x 847 km, 71.0° (Epoch: 14 December)

Event Time Altitude Azimuth Distance (km) Brightness Sun altitude
Rises 15:31:25 0° 216° (SW) 3,431 5.4 -13.2°
Reaches altitude 10° 15:34:15 10° 228° (SW) 2,489 4.6 -12.8°
Maximum altitude 15:38:50 25° 282° (WNW) 1,640 3.2 -12.1°
Enters shadow 15:42:47 13° 331° (NNW) 2,293 3.9 -11.5°
